Regional Weather Roundup
Issued by NWS

Home | Current Version | Previous Version | Text Only | Print | Product List | Glossary Off
Versions: 1 2 3 4 5 6 7 8 9 10 11 12 13 14 15 16 17 18 19 20 21 22 23 24 25 26 27 28 29 30 31 32 33 34 35 36 37 38 39 40 41 42 43 44 45 46 47 48 49 50

000
ASUS43 KLMK 031910
RWRKY
KENTUCKY REGIONAL WEATHER ROUNDUP
NATIONAL WEATHER SERVICE LOUISVILLE KY
300 PM EDT FRI JUL 03 2015

NOTE "FAIR" INDICATES FEW OR NO CLOUDS BELOW 12,000 FEET
WITH NO SIGNIFICANT WEATHER AND/OR OBSTRUCTIONS TO VISIBILITY.

KYZ001>023-026-027-061>063-070>075-032000-
WESTERN AND SOUTH CENTRAL KENTUCKY

CITY           SKY/WX    TMP DP  RH WIND       PRES   REMARKS
PADUCAH        PTSUNNY   82  70  66 W8        29.87F
HENDERSON      PTSUNNY   81  70  69 W10       29.85S
OWENSBORO      MOSUNNY   81  72  74 W8        29.86S
HOPKINSVILLE   PTSUNNY   81  70  70 SW14      29.89F
BOWLING GREEN  MOSUNNY   82  72  71 SW12      29.87F
GLASGOW        PTSUNNY   78  71  79 SW12      29.88S
$$

KYZ024-025-028>034-038-045-046-053-032000-
NORTH CENTRAL KENTUCKY

CITY           SKY/WX    TMP DP  RH WIND       PRES   REMARKS
LOUISVILLE/SDF TSTM      72  68  87 CALM      29.86R FOG
LOUISVILLE/LOU RAIN      73  70  90 SE5       29.86S FOG
FORT KNOX      LGT RAIN  76  71  86 NW2       29.84S
$$

KYZ035>037-039>044-047>052-055>060-089>105-032000-
NORTHEAST KENTUCKY

CITY           SKY/WX    TMP DP  RH WIND       PRES   REMARKS
LEXINGTON      HVY RAIN  72  68  87 S14       29.86S FOG
COVINGTON      CLOUDY    76  65  68 N7        29.87F
FRANKFORT      MOSUNNY   77  68  73 NW7       29.84F
$$

KYZ054-064>069-076>088-106>120-032000-
SOUTHEAST KENTUCKY

CITY           SKY/WX    TMP DP  RH WIND       PRES   REMARKS
JACKSON        CLOUDY    69  66  90 CALM      29.90S
LONDON         CLOUDY    75  69  81 NE5       29.89S
SOMERSET       PTSUNNY   75  68  78 W8        29.91R
MIDDLESBORO    LGT RAIN  75  71  85 S5        29.92S
MONTICELLO     MOCLDY    79  72  79 SW12      29.92S
$$




USA.gov is the U.S. government's official web portal to all federal, state and local government web resources and services.